Regional Weather Roundup
Issued by NWS Green Bay, WI

Home | Current Version | Previous Version | Graphics & Text | Print | Product List | Glossary Off
Versions: 1 2 3 4 5 6 7 8 9 10 11 12 13 14 15 16 17 18 19 20 21 22 23 24 25 26 27 28 29 30 31 32 33 34 35 36 37 38 39 40 41 42 43 44 45 46 47 48 49 50

000
ASUS43 KGRB 252110
RWRGRB

NORTH-CENTRAL AND NORTHEAST WISCONSIN REGIONAL WEATHER ROUNDUP
NATIONAL WEATHER SERVICE GREEN BAY WI
400 PM CDT FRI JUL 25 2014

WIZ005-009-010>012-018-019-252200-
NORTH CENTRAL WISCONSIN

CITY           SKY/WX    TMP DP  RH WIND       PRES   REMARKS
IRONWOOD       NOT AVBL
MANITOWISH WTR CLOUDY    70  64  80 SW6       29.84S
ARBOR VITAE    CLOUDY    73  63  71 S8        29.85F
EAGLE RIVER    CLOUDY    69  60  71 S5        29.86F
LAND O LAKES   CLOUDY    70  61  72 S5        29.86F
RHINELANDER    CLOUDY    67  61  81 SW12      29.88F
PHILLIPS       CLOUDY    68  63  83 S7        29.86S
ANTIGO         CLOUDY    66  61  84 S12       29.90F
TOMAHAWK       CLOUDY    66  61  82 CALM      29.89S
MERRILL        CLOUDY    66  62  86 SW8       29.89S
$$

WIZ013-073-252200-
NORTHEAST WISCONSIN

CITY           SKY/WX    TMP DP  RH WIND       PRES   REMARKS
IRON MOUNTAIN  CLOUDY    72  60  66 SW9       29.85F
MARINETTE      MOSUNNY   73  57  56 SW18      29.86S
OCONTO         CLOUDY    72  58  62 SW10      29.88S
$$

WIZ017-030-035>037-045-252200-
CENTRAL WISCONSIN

CITY           SKY/WX    TMP DP  RH WIND       PRES   REMARKS
MEDFORD        CLOUDY    65  61  89 S9        29.89S
WAUSAU         CLOUDY    67  61  81 SW8       29.88S
MOSINEE        CLOUDY    66  63  88 SW12      29.91S
MARSHFIELD     CLOUDY    68  62  81 S7        29.89S
WISC RAPIDS    CLOUDY    68  61  78 S9        29.91S
STEVENS POINT  CLOUDY    67  59  76 SW9       29.90S
WAUPACA        CLOUDY    73  60  64 SW10      29.90S
SHAWANO        CLOUDY    72  60  66 SW6       29.89S
CLINTONVILLE   CLOUDY    70  59  68 SW10      29.89S
$$

WIZ038-039-048-051-252200-
FOX VALLEY

CITY           SKY/WX    TMP DP  RH WIND       PRES   REMARKS
NWS GREEN BAY  CLOUDY    72  59  63 S10       29.89F
APPLETON       PTSUNNY   72  59  64 SW15      29.91F
OSHKOSH        CLOUDY    72  60  66 S15G22    29.90F
FOND DU LAC    PTSUNNY   72  58  61 S14G23    29.92F
$$

WIZ022-050-052-252200-
EAST CENTRAL WISCONSIN

CITY           SKY/WX    TMP DP  RH WIND       PRES   REMARKS
STURGEON BAY   CLOUDY    70  57  64 S10       29.90F
MANITOWOC      MOSUNNY   73  56  54 SW14      29.92S
SHEBOYGAN      MOSUNNY   72  60  66 S13       29.93F
$$

LMZ563-521-522-541>543-252200-
LAKESHORE

STATION/POSITION TIME  TEMP    WIND        PRES    VSBY  WAVE
                       AIR SEA DIR/SP/G                  HT/PER
                 (UTC) (F)     (DEG/KT/KT) (MB)    (MI)  (FT/S)
SHEBOYGAN LKSHOR 2100   67     170/  8/  9 1013.6F
KEWAUNEE LKSHORE 2100   56     180/  8/  9 1013.4F
NORTHPORT PIER   2100   66     150/  6/ 12 1011.9F
N MID LAKE BUOY  2100   59 56  190/ 14/ 16 1011.8F         3/ 5
STURGEON BAY CG  2100   55 48  180/  9     1012.4      6   2
CHAMBERS ISLAND  2100   73     190/  8/ 15 1011.5S
MENOMINEE LKSHOR 2100   71     180/ 13/ 19 1012.2F
$$



USA.gov is the U.S. government's official web portal to all federal, state and local government web resources and services.